Regional Weather Roundup
Issued by NWS

Home | Current Version | Previous Version | Text Only | Print | Product List | Glossary Off
Versions: 1 2 3 4 5 6 7 8 9 10 11 12 13 14 15 16 17 18 19 20 21 22 23 24 25 26 27 28 29 30 31 32 33 34 35 36 37 38 39 40 41 42 43 44 45 46 47 48 49 50

000
ASUS45 KTFX 300210
RWRMT
MONTANA REGIONAL WEATHER ROUNDUP
NATIONAL WEATHER SERVICE GREAT FALLS MT
800 PM MDT MON MAY 29 2017

NOTE: "FAIR" INDICATES FEW OR NO CLOUDS BELOW 12000 FEET WITH NO
SIGNIFICANT WEATHER AND/OR OBSTRUCTIONS TO VISIBILITY.

MTZ001>007-043-300300-
WEST OF THE DIVIDE

CITY           SKY/WX    TMP DP  RH WIND       PRES   REMARKS
KALISPELL      MOSUNNY   71  46  40 NE12      30.02F
MISSOULA       SUNNY     80  41  24 N10       29.99F
BUTTE          SUNNY     66  43  43 SE9       30.16F
MULLAN PASS    PTSUNNY   66  34  30 CALM      30.16F
ANACONDA         N/A     72  36  26 E5        30.11S
DEER LODGE       N/A     73  34  23 CALM      30.12S
EUREKA           N/A     82  39  21 CALM      29.99F
HAMILTON         N/A     79  43  27 NW5       30.01S
RONAN            N/A     78  41  26 N9        30.06S
$$

MTZ008-052>055-300300-
SOUTHWEST MONTANA

CITY           SKY/WX    TMP DP  RH WIND       PRES   REMARKS
BOZEMAN        CLEAR     70  46  42 NW3       30.11S
DILLON         CLEAR     70  40  33 N6        30.12R
ENNIS          PTCLDY    63  43  48 NE9       30.18S
THREE FORKS      N/A     73  35  24 CALM      30.09S
$$

MTZ009-010-012-014-046-048-049-054-300300-
EAST SLOPES AND CENTRAL MONTANA

CITY           SKY/WX    TMP DP  RH WIND       PRES   REMARKS
CUT BANK       MOSUNNY   72  41  32 E10       30.09S
GREAT FALLS    MOCLDY    71  40  32 E10       30.09S
MALMSTROM AFB  MOCLDY    69  47  44 E7        30.09F
HELENA         PTCLDY    76  40  27 E7        30.07S
CHOTEAU          N/A     68  48  49 W6        30.13S
CONRAD           N/A     66  62  87 SE5       30.12S
$$

MTZ011-013-016-021-045-047-050-051-300300-
NORTH CENTRAL MONTANA

CITY           SKY/WX    TMP DP  RH WIND       PRES   REMARKS
HAVRE          CLEAR     72  35  25 SE6       30.07F
LEWISTOWN      CLEAR     66  42  41 N5        30.14S
N BAR RANCH      N/A     64  39  39 NE7       30.18R
CHINOOK          N/A     75  34  22 SE3       30.07F
FORT BENTON      N/A     75  43  31 MISG      30.08S
$$

MTZ017>020-022>027-061-062-300300-
NORTHEAST MONTANA

CITY           SKY/WX    TMP DP  RH WIND       PRES   REMARKS
GLASGOW        CLEAR     67  27  22 N13       30.08S
JORDAN           N/A     68  28  22 N10       30.09S
SIDNEY         CLEAR     64  31  28 N8        30.06S
WOLF POINT     CLEAR     68  25  19 N10       30.07S
MALTA          CLEAR     68  32  26 NE7       30.08R
PLENTYWOOD       N/A     63  27  25 NW15      30.05S
POPLAR           N/A     64  28  25 N9        30.07S
$$

MTZ028>42-056>058-300300-
SOUTHCENTRAL AND SOUTHEAST MONTANA

CITY           SKY/WX    TMP DP  RH WIND       PRES   REMARKS
BAKER          CLEAR     62  29  28 N12       30.09S
BILLINGS       PTCLDY    71  38  29 E3        30.11S
LIVINGSTON     CLEAR     65  45  48 E13       30.13R
MILES CITY     CLEAR     68  25  19 N9        30.08S
BIG TIMBER     CLEAR     66  43  42 N3        30.17R
FORSYTH          N/A     70  27  19 NW6       30.09R
LAUREL           N/A     70  39  32 NE1       30.09F
ROUNDUP          N/A     70  35  27 N6        30.03S
$$

REGIONAL REPORTS...DAKOTAS

CITY           SKY/WX    TMP DP  RH WIND       PRES   REMARKS
WILLISTON      CLEAR     65  28  24 N10       30.04F
MINOT          CLEAR     55  39  54 N9        29.99R
DICKINSON      PTCLDY    59  28  30 N9        30.04R
BEACH            N/A     59  28  31 N13       30.10S
CROSBY           N/A     63  27  25 N14       30.02S
TIOGA            N/A     61  25  25 N15G23    30.03S
WATFORD CITY     N/A     61  30  31 NW9       30.03S
BISMARCK       MOCLDY    62  36  37 NW10      29.99S
GRAND FORKS    CLOUDY    52  44  74 N14       29.89S
FARGO          CLOUDY    54  46  74 NW13      29.89F
BUFFALO SD       N/A     61  31  32 NW14      30.02S
RAPID CITY     CLEAR     62  28  27 N17       30.09R
$$

REGIONAL REPORTS...WYOMING/IDAHO/WASHINGTON

CITY           SKY/WX    TMP DP  RH WIND       PRES   REMARKS
GILLETTE       CLEAR     57  37  47 NW8       30.15S
SHERIDAN       CLEAR     60  44  55 W6        30.15S
BUFFALO WY     CLEAR     59  35  40 VRB5      30.19S
CODY           CLEAR     67  31  26 N7        30.19R
YELLOWSTONE LA   N/A     53  28  38 CALM      30.30R
IDAHO FALLS    CLEAR     72  44  36 NW7       30.10F
SALMON         SUNNY     75  46  35 S3        30.00F
BOISE          SUNNY     87  33  14 N6        29.94F
SPOKANE        MOSUNNY   85  39  19 W3        29.95F
$$

REGIONAL REPORTS...ALBERTA

CITY           SKY/WX    TMP DP  RH WIND       PRES   REMARKS
EDMONTON       SUNNY     68  36  30 SE8       30.11F
CALGARY        PTSUNNY   68  41  37 SE10      30.11R
LETHBRIDGE     PTSUNNY   73  41  31 E13       30.06R
MEDICINE HAT   MOSUNNY   70  32  24 NE8       30.08S
WATERTON GATE    N/A     61  50  67 S9          N/A
ONEFOUR          N/A     68  39  34 NE8         N/A
$$

REGIONAL REPORTS...SASKATCHEWAN

CITY           SKY/WX    TMP DP  RH WIND       PRES   REMARKS
SWIFT CURRENT  CLEAR     63  28  27 N10G21    30.10S
REGINA         CLEAR     61  30  31 N16G23    30.06R
SASKATOON      CLEAR     63  28  27 N12G20    30.11R
CYPRESS HILLS    N/A     57  28  33 NE3         N/A
VAL MARIE        N/A     63  30  29 N8          N/A
ROCKGLEN         N/A     57  27  30 N12         N/A
ASSINIBOIA       N/A     66  28  24 E8          N/A
$$



USA.gov is the U.S. government's official web portal to all federal, state and local government web resources and services.